This is the latest recevied weather packets stored in our database for station/object W0WFX-2. If no packets are shown the sender has not sent any weather packets the latest 10 day(s).
| Time | Temp. | Humidity | Pressure | Rain* | Wind** | Luminosity | Snow |
|---|---|---|---|---|---|---|---|
| 1787796668 | 26.11° C | 62% | 1016.4 hPa | 0 mm | - | 0 W/m² | - |
| 1787796363 | 26.67° C | 62% | 1016.3 hPa | 0 mm | - | 0 W/m² | - |
| 1787796059 | 26.67° C | 61% | 1016.3 hPa | 0 mm | - | 0 W/m² | - |
| 1787795756 | 26.67° C | 60% | 1016.4 hPa | 0 mm | - | 0 W/m² | - |
| 1787795452 | 26.67° C | 60% | 1016.2 hPa | 0 mm | - | 0 W/m² | - |
| 1787795150 | 27.22° C | 60% | 1016.3 hPa | 0 mm | - | 0 W/m² | - |
| 1787794849 | 27.22° C | 60% | 1016 hPa | 0 mm | - | 0 W/m² | - |
| 1787794546 | 27.22° C | 60% | 1015.9 hPa | 0 mm | - | 0 W/m² | - |
| 1787794241 | 27.22° C | 58% | 1015.9 hPa | 0 mm | - | 0 W/m² | - |
| 1787793936 | 27.78° C | 58% | 1015.7 hPa | 0 mm | - | 0 W/m² | - |
| 1787793633 | 27.78° C | 58% | 1015.7 hPa | 0 mm | - | 0 W/m² | - |
| 1787793333 | 27.78° C | 57% | 1015.7 hPa | 0 mm | - | 0 W/m² | - |
| 1787793027 | 28.33° C | 56% | 1015.7 hPa | 0 mm | - | 0 W/m² | - |
| 1787792722 | 28.33° C | 57% | 1015.6 hPa | 0 mm | - | 1 W/m² | - |
| 1787792421 | 28.33° C | 56% | 1015.9 hPa | 0 mm | - | 2 W/m² | - |
| 1787792119 | 28.89° C | 56% | 1015.7 hPa | 0 mm | - | 3 W/m² | - |
| 1787791817 | 28.89° C | 55% | 1015.7 hPa | 0 mm | - | 5 W/m² | - |
| 1787791513 | 28.89° C | 55% | 1015.6 hPa | 0 mm | - | 7 W/m² | - |
| 1787791208 | 29.44° C | 56% | 1015.6 hPa | 0 mm | - | 12 W/m² | - |
| 1787790904 | 29.44° C | 56% | 1015.3 hPa | 0 mm | - | 20 W/m² | - |
| 1787790599 | 30° C | 55% | 1015.5 hPa | 0 mm | - | 29 W/m² | - |
| 1787790294 | 30° C | 54% | 1015.2 hPa | 0 mm | - | 35 W/m² | - |
| 1787789990 | 30° C | 54% | 1015.3 hPa | 0 mm | - | 42 W/m² | - |
* Rain latest hour (hover to see other rain measurements)
** Current wind speed in m/s (hover to see current wind gust speed)